FW0416 Weather Reports


time (UTC)temp
F
wind
direction
speed
knots
gust
knots
rain 1hr
in
rain 24hr
in
rain mn
in
humidity
%
barometer
mb
20260510104344 59 144 0.0 0.0 0.00 0.00 0.00 97 1014.3
20260510103840 59 135 0.0 0.0 0.00 0.00 0.00 97 1014.1
20260510103337 59 135 0.0 0.0 0.00 0.00 0.00 97 1014.0
20260510102833 59 135 0.0 0.0 0.00 0.00 0.00 97 1014.0
20260510102328 59 136 0.0 0.0 0.00 0.00 0.00 97 1013.9
20260510101826 59 142 0.0 0.0 0.00 0.00 0.00 97 1013.9
20260510101324 59 135 0.0 0.0 0.00 0.00 0.00 97 1013.8
20260510100820 59 134 0.0 0.0 0.00 0.00 0.00 97 1013.7
20260510100319 59 134 0.0 0.0 0.00 0.00 0.00 97 1013.7
20260510095814 59 134 0.0 0.0 0.00 0.00 0.00 97 1013.6
20260510095309 59 131 0.0 0.0 0.00 0.00 0.00 97 1013.4
20260510094808 59 135 0.0 0.0 0.00 0.00 0.00 97 1013.5
20260510094304 59 126 0.0 0.0 0.00 0.00 0.00 97 1013.4
20260510093800 59 132 0.0 0.0 0.00 0.00 0.00 97 1013.3
20260510093257 59 145 0.0 0.0 0.00 0.00 0.00 97 1013.4
20260510092753 59 145 0.0 0.0 0.00 0.00 0.00 97 1013.2
20260510092249 59 141 0.0 0.0 0.00 0.00 0.00 97 1013.0
20260510091745 59 141 0.0 0.0 0.00 0.00 0.00 97 1012.9
20260510091242 59 132 0.0 0.0 0.00 0.00 0.00 97 1012.8
20260510090738 59 132 0.0 0.0 0.00 0.00 0.00 97 1012.8
20260510090236 59 137 0.0 0.0 0.00 0.00 0.00 97 1012.8
20260510085731 59 132 0.0 0.0 0.00 0.00 0.00 96 1012.6
20260510085225 59 132 0.0 0.0 0.00 0.00 0.00 96 1012.5
20260510084722 59 132 0.0 0.0 0.00 0.00 0.00 96 1012.7
20260510084219 59 134 0.0 0.0 0.00 0.00 0.00 96 1012.7
20260510083715 59 134 0.0 0.0 0.00 0.00 0.00 96 1012.7
20260510083213 60 134 0.0 0.0 0.00 0.00 0.00 96 1012.5
20260510082708 60 133 0.0 0.0 0.00 0.00 0.00 96 1012.6
20260510082204 60 133 0.0 0.0 0.00 0.00 0.00 96 1012.5
20260510081659 60 138 0.0 0.0 0.00 0.00 0.00 96 1012.5
20260510081155 60 138 0.0 0.0 0.00 0.00 0.00 96 1012.5
20260510080654 60 138 0.0 0.0 0.00 0.00 0.00 96 1012.6
20260510080151 60 129 0.0 0.0 0.00 0.00 0.00 96 1012.6
20260510075648 60 129 0.0 0.0 0.00 0.00 0.00 96 1012.5
20260510075146 60 129 0.0 0.0 0.00 0.00 0.00 96 1012.4
20260510074643 60 129 0.0 0.0 0.00 0.00 0.00 95 1012.8
20260510074138 60 128 0.0 0.0 0.00 0.00 0.00 95 1012.5
20260510073635 60 136 0.0 0.0 0.00 0.00 0.00 95 1012.4
20260510073131 60 136 0.0 0.0 0.00 0.00 0.00 95 1012.4
20260510072627 60 137 0.0 0.0 0.00 0.00 0.00 95 1012.6
20260510072124 60 137 0.0 0.0 0.00 0.00 0.00 95 1012.6
20260510071620 60 137 0.0 0.0 0.00 0.00 0.00 95 1012.6
20260510071118 60 134 0.0 0.0 0.00 0.00 0.00 95 1012.6
20260510070614 60 134 0.0 0.0 0.00 0.00 0.00 95 1012.6
20260510070112 60 136 0.0 0.0 0.00 0.00 0.00 94 1012.7
20260510065608 61 136 0.0 0.0 0.00 0.00 0.00 94 1012.8
20260510065105 61 136 0.0 0.0 0.00 0.00 0.00 94 1012.8
20260510064601 61 136 0.0 0.0 0.00 0.00 0.00 94 1012.5
20260510064058 61 136 0.0 0.0 0.00 0.00 0.00 94 1012.5
20260510063555 61 136 0.0 0.0 0.00 0.00 0.00 94 1012.5
20260510063051 61 136 0.0 0.0 0.00 0.00 0.00 94 1012.6
20260510062547 61 136 0.0 0.0 0.00 0.00 0.00 94 1012.4
20260510062043 61 136 0.0 0.0 0.00 0.00 0.00 94 1012.5
20260510061539 61 136 0.0 0.0 0.00 0.00 0.00 93 1012.2
20260510061036 61 136 0.0 0.0 0.00 0.00 0.00 93 1012.4
20260510060532 61 136 0.0 0.0 0.00 0.00 0.00 93 1012.1
20260510060029 61 136 0.0 0.0 0.00 0.00 0.00 93 1012.4
20260510055525 61 136 0.0 0.0 0.00 0.00 0.00 93 1012.2
20260510055024 61 136 0.0 0.0 0.00 0.00 0.00 93 1012.4
20260510054519 61 136 0.0 0.0 0.00 0.00 0.00 93 1012.2
20260510054014 62 136 0.0 0.0 0.00 0.00 0.00 93 1012.4
20260510053509 62 140 0.0 0.0 0.00 0.00 0.00 93 1012.4
20260510053006 62 141 0.0 0.0 0.00 0.00 0.00 93 1012.5
20260510052502 62 141 0.0 0.0 0.00 0.00 0.00 93 1012.5
20260510051958 62 129 0.0 0.0 0.00 0.00 0.00 93 1012.2
20260510051454 62 129 0.0 0.0 0.00 0.00 0.00 93 1012.3
20260510050950 62 129 0.0 0.0 0.00 0.00 0.00 93 1012.3
20260510050443 62 128 0.0 0.0 0.00 0.00 0.00 92 1012.2
20260510045940 62 132 0.0 0.0 0.00 0.00 0.00 92 1012.1
20260510045437 62 133 0.0 0.0 0.00 0.00 0.00 92 1012.3
20260510044933 62 139 0.0 0.0 0.00 0.00 0.00 92 1012.4
20260510044430 62 126 0.0 0.0 0.00 0.00 0.00 91 1012.0
20260510043927 62 137 0.0 0.0 0.00 0.00 0.00 91 1012.2
20260510043423 62 134 0.0 0.0 0.00 0.00 0.00 91 1012.1
20260510042921 62 136 0.0 0.0 0.00 0.00 0.00 90 1012.0
20260510042417 63 136 0.0 0.0 0.00 0.00 0.00 90 1011.9
20260510041913 63 136 0.0 0.0 0.00 0.00 0.00 90 1012.1
20260510041410 63 133 0.0 0.0 0.00 0.00 0.00 89 1012.1
20260510040908 63 134 0.0 0.0 0.00 0.00 0.00 89 1012.2
20260510040404 63 134 0.0 0.0 0.00 0.00 0.00 89 1012.3
20260510035859 63 134 0.0 0.0 0.00 0.00 0.00 89 1012.3
20260510035356 63 128 0.0 0.0 0.00 0.00 0.00 89 1012.2
20260510034851 64 132 0.0 0.0 0.00 0.00 0.00 88 1012.4
20260510034350 64 138 0.0 0.0 0.00 0.00 0.00 88 1012.2
20260510033846 64 149 0.0 0.0 0.00 0.00 0.00 88 1012.4
20260510033343 64 149 0.0 0.0 0.00 0.00 0.00 88 1012.2
20260510032839 64 149 0.0 0.0 0.00 0.00 0.00 89 1012.3
20260510032336 63 146 0.0 0.0 0.00 0.00 0.00 89 1012.1
20260510031831 63 147 0.0 0.0 0.00 0.00 0.00 88 1012.2
20260510031327 64 135 0.0 0.0 0.00 0.00 0.00 87 1012.1
20260510030827 64 135 0.0 0.0 0.00 0.00 0.00 86 1012.1
20260510030323 64 135 0.0 0.0 0.00 0.00 0.00 86 1012.2
20260510025820 64 131 0.0 0.0 0.00 0.00 0.00 85 1012.2
20260510025318 64 135 0.0 0.0 0.00 0.00 0.00 84 1012.1
20260510024815 65 135 0.0 0.0 0.00 0.00 0.00 84 1012.1
20260510024312 65 135 0.0 0.0 0.00 0.00 0.00 83 1011.8
20260510023808 65 135 0.0 0.0 0.00 0.00 0.00 82 1011.9
20260510023304 66 135 0.0 0.0 0.00 0.00 0.00 82 1011.8
20260510022801 66 131 0.0 0.0 0.00 0.00 0.00 82 1011.7
20260510022301 66 131 0.0 0.0 0.00 0.00 0.00 81 1011.8
20260510021800 66 135 0.0 0.0 0.00 0.00 0.00 81 1011.6
20260510021258 67 134 0.0 0.0 0.00 0.00 0.00 80 1011.5
20260510020754 67 135 0.0 0.0 0.00 0.00 0.00 79 1011.5
20260510020253 67 135 0.0 0.0 0.00 0.00 0.00 79 1011.4
20260510015750 67 135 0.0 0.0 0.00 0.00 0.00 79 1011.4
20260510015246 68 135 0.0 0.0 0.00 0.00 0.00 78 1011.4
20260510014741 68 134 0.0 0.0 0.00 0.00 0.00 78 1011.3
20260510014239 68 131 0.0 0.0 0.00 0.00 0.00 77 1011.1
20260510013735 68 134 0.0 0.0 0.00 0.00 0.00 77 1011.3
20260510013231 69 134 0.0 0.0 0.00 0.00 0.00 77 1011.0
20260510012731 69 132 0.0 0.0 0.00 0.00 0.00 75 1011.0
20260510012226 70 135 0.0 0.0 0.00 0.00 0.00 73 1011.0
20260510011720 71 134 0.0 0.0 0.00 0.00 0.00 72 1010.8
20260510011216 71 143 0.0 0.0 0.00 0.00 0.00 68 1010.7
20260510010713 72 142 0.0 0.0 0.00 0.00 0.00 66 1010.6
20260510010209 72 141 0.0 0.0 0.00 0.00 0.00 67 1010.4
20260510005706 72 142 0.0 0.0 0.00 0.00 0.00 66 1010.5
20260510005202 73 140 0.0 0.0 0.00 0.00 0.00 64 1010.4
20260510004701 73 143 0.0 0.0 0.00 0.00 0.00 62 1010.1
20260510004158 73 148 0.0 0.0 0.00 0.00 0.00 60 1010.1
20260510003656 74 144 0.0 0.0 0.00 0.00 0.00 60 1010.0
20260510003151 74 140 0.0 0.0 0.00 0.00 0.00 60 1010.1
20260510002651 75 140 0.0 0.0 0.00 0.00 0.00 58 1009.8
20260510002148 75 140 0.0 0.0 0.00 0.00 0.00 57 1009.8
20260510001645 76 140 0.0 0.0 0.00 0.00 0.00 56 1009.9
20260510001144 76 139 0.0 0.0 0.00 0.00 0.00 55 1009.9
20260510000644 77 142 0.0 0.0 0.00 0.00 0.00 54 1009.7
20260510000142 77 142 0.0 0.0 0.00 0.00 0.00 52 1009.8
20260509235638 78 144 0.0 0.0 0.00 0.00 0.00 51 1009.6
20260509235135 78 144 0.0 0.0 0.00 0.00 0.00 50 1009.5
20260509234631 78 144 0.0 0.0 0.00 0.00 0.00 48 1009.5
20260509234129 78 138 0.0 0.0 0.00 0.00 0.00 50 1009.8
20260509233626 78 151 0.0 0.0 0.00 0.00 0.00 51 1009.6
20260509233123 78 142 0.0 0.0 0.00 0.00 0.00 49 1009.5
20260509232619 78 137 0.0 0.0 0.00 0.00 0.00 49 1009.5
20260509232116 79 142 0.0 0.0 0.00 0.00 0.00 47 1009.5
20260509231613 79 139 0.0 0.0 0.00 0.00 0.00 46 1009.7
20260509231111 79 145 0.0 0.0 0.00 0.00 0.00 45 1009.4
20260509230608 80 144 0.0 0.0 0.00 0.00 0.00 45 1009.6
20260509230105 80 149 0.0 0.0 0.00 0.00 0.00 42 1009.4
20260509225600 80 142 0.0 0.0 0.00 0.00 0.00 39 1009.4
20260509225055 80 142 0.0 0.0 0.00 0.00 0.00 37 1009.3
20260509224551 80 160 0.0 0.9 0.00 0.00 0.00 38 1009.4
20260509224048 80 132 0.0 0.0 0.00 0.00 0.00 39 1009.1
20260509223545 80 156 0.0 0.0 0.00 0.00 0.00 39 1009.2
20260509223043 80 156 0.0 0.0 0.00 0.00 0.00 40 1009.3
20260509222539 80 101 0.0 0.0 0.00 0.00 0.00 39 1009.2
20260509222036 80 100 0.9 0.9 0.00 0.00 0.00 42 1009.2
20260509221531 80 147 0.0 0.0 0.00 0.00 0.00 40 1009.1
20260509221027 80 123 0.0 0.0 0.00 0.00 0.00 41 1009.2
20260509220523 80 136 0.0 0.0 0.00 0.00 0.00 45 1009.2
20260509220020 80 140 0.0 0.0 0.00 0.00 0.00 44 1009.3
20260509215515 80 143 0.0 0.0 0.00 0.00 0.00 44 1009.2
20260509215012 80 159 0.9 0.9 0.00 0.00 0.00 42 1009.4
20260509214509 81 140 0.0 0.0 0.00 0.00 0.00 41 1009.2
20260509214006 81 147 0.0 0.0 0.00 0.00 0.00 39 1009.4
20260509213502 81 146 0.0 0.0 0.00 0.00 0.00 41 1009.4
20260509212959 81 168 0.9 1.7 0.00 0.00 0.00 40 1009.3
20260509212456 81 150 0.0 0.0 0.00 0.00 0.00 42 1009.2
20260509211953 80 136 0.0 0.0 0.00 0.00 0.00 42 1009.4
20260509211448 80 132 0.9 0.9 0.00 0.00 0.00 42 1009.7
20260509210945 81 171 0.9 0.9 0.00 0.00 0.00 42 1009.3
20260509210443 80 146 0.0 0.0 0.00 0.00 0.00 43 1009.3
20260509205938 80 146 0.0 0.0 0.00 0.00 0.00 42 1009.4
20260509205433 80 126 0.0 0.0 0.00 0.00 0.00 44 1009.3
20260509204929 80 140 0.9 1.7 0.00 0.00 0.00 46 1009.5
20260509204425 80 109 1.7 1.7 0.00 0.00 0.00 43 1009.6
20260509203922 80 138 0.0 0.9 0.00 0.00 0.00 41 1009.7
20260509203418 80 147 0.0 0.0 0.00 0.00 0.00 42 1009.6
20260509202915 80 157 0.9 1.7 0.00 0.00 0.00 41 1009.7
20260509202411 80 148 0.9 0.9 0.00 0.00 0.00 41 1009.9
20260509201907 80 144 0.0 0.0 0.00 0.00 0.00 42 1009.7
20260509201402 80 128 1.7 2.6 0.00 0.00 0.00 41 1009.8
20260509200859 80 171 1.7 2.6 0.00 0.00 0.00 41 1009.7
20260509200354 80 179 1.7 1.7 0.00 0.00 0.00 40 1010.0
20260509195851 80 158 0.9 0.9 0.00 0.00 0.00 41 1009.8
20260509195346 80 171 2.6 2.6 0.00 0.00 0.00 40 1009.8
20260509194846 80 159 1.7 1.7 0.00 0.00 0.00 41 1009.8
20260509194342 80 110 0.0 0.0 0.00 0.00 0.00 41 1009.9
20260509193838 80 169 0.9 1.7 0.00 0.00 0.00 41 1010.0
20260509193338 80 196 1.7 1.7 0.00 0.00 0.00 44 1010.0
20260509192835 80 159 0.9 0.9 0.00 0.00 0.00 42 1010.2
20260509192330 80 201 1.7 1.7 0.00 0.00 0.00 43 1010.1
20260509191825 80 145 1.7 1.7 0.00 0.00 0.00 39 1010.0
20260509191321 80 103 0.9 1.7 0.00 0.00 0.00 40 1010.2
20260509190818 80 130 0.0 0.9 0.00 0.00 0.00 40 1009.9
20260509190315 80 136 0.0 0.0 0.00 0.00 0.00 41 1010.0
20260509185813 80 56 1.7 2.6 0.00 0.00 0.00 39 1010.0
20260509185308 80 173 0.9 0.9 0.00 0.00 0.00 41 1010.1
20260509184806 80 98 0.9 0.9 0.00 0.00 0.00 45 1009.9
20260509184303 80 147 0.0 0.0 0.00 0.00 0.00 47 1010.2
20260509183759 80 106 0.0 0.0 0.00 0.00 0.00 45 1010.1
20260509183255 80 58 1.7 1.7 0.00 0.00 0.00 46 1010.3
20260509182750 81 150 0.0 0.0 0.00 0.00 0.00 46 1010.1
20260509182248 80 136 1.7 2.6 0.00 0.00 0.00 48 1010.2
20260509181745 79 169 1.7 1.7 0.00 0.00 0.00 48 1010.3
20260509181242 79 176 2.6 3.5 0.00 0.00 0.00 48 1010.4
20260509180740 80 196 2.6 2.6 0.00 0.00 0.00 46 1010.4
20260509180236 79 169 1.7 2.6 0.00 0.00 0.00 48 1010.4
20260509175732 78 180 0.9 1.7 0.00 0.00 0.00 49 1010.5
20260509175228 78 158 0.0 0.0 0.00 0.00 0.00 50 1010.3
20260509174725 78 122 0.0 0.0 0.00 0.00 0.00 51 1010.6
20260509174220 79 149 0.0 0.0 0.00 0.00 0.00 50 1010.6
20260509173717 78 142 0.9 0.9 0.00 0.00 0.00 53 1010.6
20260509173212 79 195 0.9 1.7 0.00 0.00 0.00 50 1010.6
20260509172708 79 120 0.0 0.9 0.00 0.00 0.00 52 1010.6
20260509172205 79 191 0.9 0.9 0.00 0.00 0.00 51 1010.5
20260509171700 80 154 0.9 1.7 0.00 0.00 0.00 52 1010.8
20260509171157 81 131 0.0 0.0 0.00 0.00 0.00 49 1010.6
20260509170654 80 134 0.0 0.0 0.00 0.00 0.00 53 1010.6
20260509170150 78 106 0.0 0.0 0.00 0.00 0.00 54 1010.5
20260509165648 78 138 0.0 0.0 0.00 0.00 0.00 54 1010.6
20260509165144 78 123 0.0 0.0 0.00 0.00 0.00 54 1010.6
20260509164640 77 32 0.9 1.7 0.00 0.00 0.00 54 1010.6
20260509164136 77 123 0.9 0.9 0.00 0.00 0.00 55 1010.6
20260509163634 77 81 0.0 0.0 0.00 0.00 0.00 56 1010.6
20260509163129 78 133 0.0 0.0 0.00 0.00 0.00 55 1010.6
20260509162626 78 174 0.0 0.0 0.00 0.00 0.00 56 1010.8
20260509162122 77 141 0.0 0.0 0.00 0.00 0.00 59 1010.9
20260509161619 77 150 0.0 0.0 0.00 0.00 0.00 62 1010.6
20260509161114 76 134 1.7 1.7 0.00 0.00 0.00 58 1010.9
20260509160610 76 131 0.0 0.0 0.00 0.00 0.00 63 1010.6
20260509160105 75 126 0.0 0.0 0.00 0.00 0.00 63 1010.6
20260509155602 74 66 1.7 2.6 0.00 0.00 0.00 65 1010.5
20260509155058 73 96 0.0 0.0 0.00 0.00 0.00 66 1010.4
20260509154554 73 124 0.9 0.9 0.00 0.00 0.00 67 1010.5
20260509154052 72 140 0.0 0.0 0.00 0.00 0.00 69 1010.4
20260509153549 72 101 0.9 1.7 0.00 0.00 0.00 68 1010.4
20260509153046 72 84 1.7 1.7 0.00 0.00 0.00 69 1010.3
20260509152541 72 75 0.9 0.9 0.00 0.00 0.00 70 1010.2
20260509152039 71 32 1.7 1.7 0.00 0.00 0.00 70 1010.2
20260509151535 71 134 0.0 0.0 0.00 0.00 0.00 72 1010.3
20260509151033 71 104 0.9 0.9 0.00 0.00 0.00 72 1010.2
20260509150530 70 131 0.0 0.0 0.00 0.00 0.00 73 1010.3
20260509150029 70 119 0.0 0.0 0.00 0.00 0.00 73 1010.2
20260509145524 70 63 0.9 0.9 0.00 0.00 0.00 73 1010.2
20260509145019 69 183 0.0 0.0 0.00 0.00 0.00 75 1010.4
20260509144516 69 166 0.0 0.0 0.00 0.00 0.00 74 1010.5
20260509144014 69 158 0.0 0.9 0.00 0.00 0.00 77 1010.5
20260509143510 68 81 0.9 0.9 0.00 0.00 0.00 79 1010.5
20260509143008 68 149 0.0 0.0 0.00 0.00 0.00 80 1010.4
20260509142504 68 135 0.0 0.0 0.00 0.00 0.00 81 1010.7
20260509141959 67 158 0.0 0.0 0.00 0.00 0.00 81 1010.8
20260509141456 67 156 0.0 0.0 0.00 0.00 0.00 82 1010.6
20260509140953 67 144 0.0 0.0 0.00 0.00 0.00 82 1010.7
20260509140449 66 167 0.0 0.0 0.00 0.00 0.00 84 1010.7
20260509135947 66 146 0.9 0.9 0.00 0.00 0.00 85 1010.5
20260509135444 66 175 0.0 0.9 0.00 0.00 0.00 85 1010.4
20260509134942 65 175 0.0 0.0 0.00 0.00 0.00 86 1010.5
20260509134439 65 139 0.0 0.0 0.00 0.00 0.00 86 1010.3
20260509133937 64 138 0.9 0.9 0.00 0.00 0.00 87 1010.3
20260509133433 64 159 0.0 0.9 0.00 0.00 0.00 87 1010.2
20260509132931 63 148 0.0 0.0 0.00 0.00 0.00 88 1010.2
20260509132429 63 141 0.0 0.0 0.00 0.00 0.00 89 1010.1
20260509131925 62 158 0.0 0.9 0.00 0.00 0.00 91 1010.1
20260509131423 62 147 0.0 0.0 0.00 0.00 0.00 92 1010.1
20260509130920 61 154 0.0 0.0 0.00 0.00 0.00 92 1010.0
20260509130414 60 142 0.0 0.0 0.00 0.00 0.00 93 1010.0
20260509125912 60 145 0.0 0.0 0.00 0.00 0.00 93 1010.1
20260509125409 59 150 0.0 0.9 0.00 0.00 0.00 93 1010.1
20260509124904 59 147 0.9 0.9 0.00 0.00 0.00 94 1010.1
20260509124402 59 145 0.0 0.0 0.00 0.00 0.00 94 1010.0
20260509123859 58 152 1.7 1.7 0.00 0.00 0.00 95 1010.1
20260509123356 58 163 0.9 0.9 0.00 0.00 0.00 96 1010.0
20260509122852 57 143 0.0 0.0 0.00 0.00 0.00 96 1010.1
20260509122349 57 133 0.0 0.0 0.00 0.00 0.00 97 1010.0
20260509121846 57 146 0.0 0.0 0.00 0.00 0.00 97 1010.0
20260509121343 56 152 1.7 1.7 0.00 0.00 0.00 97 1010.2
20260509120841 56 148 0.0 0.9 0.00 0.00 0.00 97 1010.0
20260509120339 55 156 0.9 1.7 0.00 0.00 0.00 98 1009.9
20260509115837 55 155 0.9 0.9 0.00 0.00 0.00 97 1009.9
20260509115333 55 142 0.0 0.0 0.00 0.00 0.00 97 1009.8
20260509114831 55 142 0.0 0.0 0.00 0.00 0.00 97 1009.9
20260509114330 55 142 0.0 0.0 0.00 0.00 0.00 97 1009.9
20260509113829 55 146 0.0 0.0 0.00 0.00 0.00 97 1009.9
20260509113325 54 139 0.0 0.0 0.00 0.00 0.00 97 1009.8
20260509112822 54 132 0.0 0.0 0.00 0.00 0.00 97 1009.5
20260509112319 55 131 0.0 0.0 0.00 0.00 0.00 97 1009.6
20260509111816 55 132 0.0 0.0 0.00 0.00 0.00 97 1009.7
20260509111313 55 131 0.0 0.0 0.00 0.00 0.00 97 1009.5
20260509110811 55 131 0.0 0.0 0.00 0.00 0.00 97 1009.5
20260509110307 55 131 0.0 0.0 0.00 0.00 0.00 97 1009.7
20260509105805 55 136 0.0 0.0 0.00 0.00 0.00 97 1009.8
20260509105306 55 136 0.0 0.0 0.00 0.00 0.00 97 1009.5
20260509104759 55 141 0.0 0.0 0.00 0.00 0.00 97 1009.5